Location: Acton
(51.4942°N, 0.2232°W)
Time: 12:53:06
(UTC+00:00)

Cosmos 1544 - Pass Details

Date: 18 September 2020
Orbit: 471 x 491 km, 82.5° (Epoch: 25 October)

Event Time Altitude Azimuth Distance (km) Brightness Sun altitude
Rises 18:55:13 0° 198° (SSW) 2,556 6.8 -8.2°
Reaches altitude 10° 18:57:20 10° 202° (SSW) 1,677 5.9 -8.5°
Maximum altitude 19:00:58 60° 283° (WNW) 567 3.8 -9.1°
Drops below altitude 10° 19:04:37 10° 4° (N) 1,682 5.9 -9.6°
Sets 19:06:44 0° 8° (N) 2,564 6.8 -9.9°
